This is the latest recevied weather packets stored in our database for station/object N3EG. If no packets are shown the sender has not sent any weather packets the latest 10 day(s).
| Time | Temp. | Humidity | Pressure | Rain* | Wind** | Luminosity | Snow |
|---|---|---|---|---|---|---|---|
| 1777755603 | 20.56° C | 69% | 1014.4 hPa | 0 mm | - | - | - |
| 1777755303 | 20.56° C | 72% | 1014.6 hPa | 0 mm | - | - | - |
| 1777755003 | 20° C | 72% | 1014.8 hPa | 0 mm | - | - | - |
| 1777754703 | 19.44° C | 75% | 1014.9 hPa | 0 mm | - | - | - |
| 1777754402 | 19.44° C | 76% | 1015.1 hPa | 0 mm | - | - | - |
| 1777754102 | 18.89° C | 75% | 1015.1 hPa | 0 mm | - | - | - |
| 1777753803 | 18.33° C | 77% | 1015.2 hPa | 0 mm | - | - | - |
| 1777753502 | 17.78° C | 79% | 1015.3 hPa | 0 mm | - | - | - |
| 1777753202 | 17.78° C | 78% | 1015.3 hPa | 0 mm | - | - | - |
| 1777752903 | 17.22° C | 79% | 1015.4 hPa | 0 mm | - | - | - |
| 1777752602 | 16.67° C | 78% | 1015.4 hPa | 0 mm | - | - | - |
| 1777752303 | 16.67° C | 78% | 1015.5 hPa | 0 mm | - | - | - |
| 1777752003 | 16.67° C | 78% | 1015.6 hPa | 0 mm | - | - | - |
| 1777751702 | 16.67° C | 78% | 1015.6 hPa | 0 mm | - | - | - |
| 1777751403 | 16.67° C | 79% | 1015.7 hPa | 0 mm | - | - | - |
| 1777751103 | 16.67° C | 77% | 1015.7 hPa | 0 mm | - | - | - |
| 1777750802 | 16.67° C | 74% | 1015.8 hPa | 0 mm | - | - | - |
| 1777750503 | 17.22° C | 75% | 1015.8 hPa | 0 mm | - | - | - |
| 1777750203 | 17.22° C | 77% | 1015.9 hPa | 0 mm | - | - | - |
| 1777749902 | 16.67° C | 79% | 1016 hPa | 0 mm | - | - | - |
| 1777749603 | 16.67° C | 76% | 1016 hPa | 0 mm | - | - | - |
| 1777749303 | 16.67° C | 78% | 1016.2 hPa | 0 mm | - | - | - |
| 1777749002 | 16.67° C | 79% | 1016.4 hPa | 0 mm | - | - | - |
| 1777748703 | 16.11° C | 80% | 1016.4 hPa | 0 mm | - | - | - |
| 1777748402 | 16.11° C | 81% | 1016.5 hPa | 0 mm | - | - | - |
* Rain latest hour (hover to see other rain measurements)
** Current wind speed in m/s (hover to see current wind gust speed)